#timestamp,LO_Frequency,Hit,StdDev 
1563505215.3,286047001.3,N
1563505235.1,286047003.9,N
1563505255.8,286047001.5,N
1563505275.7,286047000.5,N
1563505295.5,286047000.9,N
1563505315.3,286047000.9,N
1563505335.2,286046998.9,N
1563505355.0,286046998.4,N
1563505355.9,286046998.4,N
1563505375.8,286046998.8,N
1563505395.6,286047001.1,N
1563505415.5,286046998.1,N
1563505435.3,286046999.9,N
1563505455.1,286047002.8,N
1563505475.9,286047000.9,N
1563505495.7,286047000.5,N
1563505515.5,286047000.5,N
1563505535.4,286047002.4,N
1563505555.2,286047003.6,N
1563505575.1,286047002.3,N
1563505595.4,286047000.2,N
1563505615.2,286047000.0,N
1563505635.1,286047002.1,N
1563505636.0,286047002.1,N
1563505655.8,286047000.1,N
1563505675.6,286047000.2,N
1563505695.5,286046998.2,N
1563505715.3,286047000.0,N
1563505735.2,286047000.1,N
1563505755.9,286046999.7,N
1563505775.7,286047001.8,N
1563505795.6,286047001.4,N
1563505815.4,286047001.4,N
1563505835.3,286047002.5,N
1563505855.1,286047000.5,N
1563505856.0,286047000.5,N
1563505875.8,286047000.1,N
1563505895.7,286046998.1,N
1563505915.5,286047000.3,N
1563505935.4,286047004.4,Y
1563505955.2,286047000.0,P
1563505975.0,286047001.9,P
1563505975.9,286047001.9,N
1563505995.8,286047000.2,N
1563506015.6,286046999.8,N
1563506035.5,286047001.6,N
1563506055.3,286047000.4,N
1563506075.1,286047002.8,Y
1563506095.9,286046999.9,P
1563506115.7,286047002.3,P
1563506135.5,286047003.2,P
1563506155.4,286047001.6,N
1563506175.2,286047004.4,Y
1563506195.1,286047001.2,P
1563506196.0,286047001.2,P
1563506215.8,286046998.1,P
1563506235.7,286047000.9,N
1563506255.5,286046999.8,N
1563506275.3,286047000.5,N
1563506295.2,286047002.5,N
1563506315.0,286047002.4,N
1563506315.9,286047002.4,N
1563506335.7,286047000.0,N
1563506355.6,286047000.4,N
1563506375.4,286047000.1,N
1563506395.3,286047000.1,N
1563506415.1,286046998.1,N
1563506435.8,286047001.1,N
1563506455.7,286046999.1,N
1563506475.5,286047001.0,N
1563506495.4,286047000.4,N
1563506515.2,286047001.1,N
1563506535.0,286047001.1,N
1563506535.9,286047001.1,N
1563506555.8,286047000.2,N
1563506575.6,286046999.0,N
1563506595.5,286047000.0,N
1563506615.3,286047004.3,Y
1563506635.1,286047000.1,P
1563506655.9,286047000.7,P
1563506675.7,286046998.9,P
1563506695.6,286047000.6,N
1563506715.4,286046998.5,N
1563506735.2,286047000.0,N
1563506755.1,286047000.3,N
1563506756.0,286047000.3,N
1563506775.8,286047000.1,N
1563506795.7,286046999.8,N
1563506815.5,286046999.9,N
1563506835.3,286047002.7,Y
1563506855.2,286047002.2,P
1563506875.0,286047002.1,N
1563506875.9,286047002.1,N
1563506895.8,286047002.2,N
1563506915.6,286047002.2,N
1563506935.4,286047001.6,N
1563506955.3,286047000.5,N
1563506975.1,286047002.6,Y
1563506995.9,286047002.3,P
1563507015.7,286047004.1,P
1563507035.5,286047004.3,P
1563507055.4,286047002.9,N
1563507075.2,286047003.3,Y
1563507095.0,286047000.2,P
1563507096.0,286047000.2,N
1563507115.8,286047002.3,N
1563507135.6,286047001.6,N
1563507155.5,286047002.6,N
1563507175.3,286047000.3,N
1563507195.1,286047002.8,N
1563507215.9,286046999.8,N
1563507235.7,286047001.6,N
1563507255.6,286047001.3,N
1563507275.4,286047001.8,N
1563507295.2,286047001.5,N
1563507315.1,286047002.0,N
1563507316.0,286047002.0,N
1563507335.8,286047001.9,N
1563507355.7,286047004.2,Y
1563507375.5,286047002.1,P
1563507395.3,286047002.8,P
1563507415.2,286047002.8,P
1563507435.0,286047000.1,N
1563507435.9,286047000.1,N
1563507455.7,286047000.0,N
1563507475.6,286047000.7,N
1563507495.4,286046998.5,N
1563507515.3,286046998.5,N
1563507535.1,286046998.5,N
1563507555.8,286046998.8,N
1563507575.7,286046998.9,N
1563507595.5,286046996.6,N
1563507615.4,286046997.0,N
1563507665.2,286046997.4,E
1563507675.1,286046999.2,N
1563507695.9,286047001.2,P
1563507715.7,286046998.8,N
1563507735.6,286046998.9,N
1563507755.4,286046999.3,N
1563507775.2,286046999.5,N
1563507795.1,286046996.6,Y
1563507796.0,286046996.6,P
1563507815.8,286046996.5,N
1563507835.7,286046996.5,N
1563507855.5,286046996.6,N
1563507875.3,286046997.4,N
1563507895.2,286046998.6,N
1563507915.9,286046999.5,N
1563507935.7,286046999.6,N
1563507955.6,286046999.0,N
1563507975.4,286046999.2,N
1563507995.0,286046999.1,N
1563507995.9,286046999.1,N
1563508015.8,286047001.2,N
1563508035.6,286046998.4,N
1563508055.4,286046997.9,N
1563508075.3,286046995.6,Y
1563508095.1,286046997.3,P
1563508115.9,286046996.4,P
1563508135.7,286046996.0,P
1563508155.5,286046994.0,Y
1563508175.4,286046997.0,P
1563508195.2,286046997.3,P
1563508215.0,286046995.1,P
1563508216.0,286046995.1,Y
1563508235.8,286047001.0,P
1563508255.6,286047002.7,N
1563508275.5,286047002.3,N
1563508295.3,286046999.7,N
1563508315.1,286046999.7,N
1563508335.9,286047000.5,N
1563508355.7,286047002.2,N
1563508375.6,286047002.2,N
1563508395.4,286046999.8,N
1563508415.2,286047000.9,N
1563508435.1,286047002.7,N
1563508436.0,286047002.7,N
1563508455.8,286047002.4,N
1563508475.7,286047002.4,N
1563508495.5,286047000.6,N
1563508515.3,286047000.0,N
1563508535.2,286047002.7,N
1563508555.0,286047001.9,N
1563508555.9,286047001.9,N
1563508575.8,286047001.5,N
1563508595.6,286047004.2,N
1563508615.4,286047004.4,N
1563508635.5,286047002.8,N
1563508655.8,286047001.8,N
1563508675.6,286047000.1,N
1563508695.4,286047002.0,N
1563508715.3,286047001.4,N
1563508735.1,286047003.3,N
1563508755.8,286047001.4,N
1563508775.7,286047002.2,N
1563508795.5,286047004.1,Y
